| time (UTC) | temp C | wind direction | speed KPH | gust KPH | rain 1hr cm | rain 24hr cm | rain mn cm | humidity % | barometer mb |
| 20260506222133 | 16 | 207 | 0.0 | 0.0 | 0.00 | 0.00 | 0.00 | 6 | 1007.4 |
| 20260506220309 | 16 | 168 | 3.2 | 6.4 | 0.00 | 0.00 | 0.00 | 6 | 1007.3 |
| 20260506214518 | 16 | 223 | 0.0 | 0.0 | 0.00 | 0.00 | 0.00 | 6 | 1007.3 |
| 20260506212912 | 16 | 196 | 0.0 | 0.0 | 0.00 | 0.00 | 0.00 | 5 | 1007.4 |
| 20260506211316 | 16 | 196 | 0.0 | 1.6 | 0.00 | 0.00 | 0.00 | 5 | 1007.4 |
| 20260506205520 | 16 | 196 | 0.0 | 0.0 | 0.00 | 0.00 | 0.00 | 5 | 1007.2 |
| 20260506203658 | 17 | 196 | 0.0 | 1.6 | 0.00 | 0.00 | 0.00 | 5 | 1007.0 |
| 20260506201718 | 16 | 203 | 0.0 | 0.0 | 0.00 | 0.00 | 0.00 | 6 | 1007.1 |
| 20260506200119 | 16 | 204 | 0.0 | 0.0 | 0.00 | 0.00 | 0.00 | 6 | 1006.9 |
| 20260506192417 | 17 | 203 | 0.0 | 0.0 | 0.00 | 0.00 | 0.00 | 5 | 1007.0 |
| 20260506190533 | 17 | 201 | 0.0 | 0.0 | 0.00 | 0.00 | 0.00 | 5 | 1006.9 |
| 20260506175620 | 19 | 224 | 0.0 | 0.0 | 0.00 | 0.00 | 0.00 | 5 | 1006.3 |
| 20260506173703 | 19 | 225 | 0.0 | 0.0 | 0.00 | 0.00 | 0.00 | 5 | 1006.2 |
| 20260506172008 | 20 | 198 | 0.0 | 3.2 | 0.00 | 0.00 | 0.00 | 5 | 1006.2 |
| 20260506170346 | 20 | 275 | 4.8 | 4.8 | 0.00 | 0.00 | 0.00 | 5 | 1006.4 |
| 20260506164707 | 20 | 186 | 0.0 | 0.0 | 0.00 | 0.00 | 0.00 | 6 | 1006.4 |
| 20260506163022 | 21 | 186 | 0.0 | 1.6 | 0.00 | 0.00 | 0.00 | 6 | 1006.0 |
| 20260506161243 | 21 | 186 | 0.0 | 0.0 | 0.00 | 0.00 | 0.00 | 5 | 1006.0 |
| 20260506155624 | 21 | 186 | 0.0 | 0.0 | 0.00 | 0.00 | 0.00 | 6 | 1006.3 |
| 20260506153653 | 21 | 186 | 0.0 | 0.0 | 0.00 | 0.00 | 0.00 | 5 | 1006.3 |
| 20260506151902 | 21 | 186 | 0.0 | 0.0 | 0.00 | 0.00 | 0.00 | 6 | 1006.5 |
| 20260506150013 | 25 | 226 | 0.0 | 0.0 | 0.00 | 0.00 | 0.00 | 5 | 1006.6 |
| 20260506144213 | 24 | 226 | 0.0 | 0.0 | 0.00 | 0.00 | 0.00 | 4 | 1006.6 |
| 20260506142251 | 24 | 226 | 0.0 | 1.6 | 0.00 | 0.00 | 0.00 | 4 | 1006.7 |
| 20260506140550 | 25 | 184 | 1.6 | 3.2 | 0.00 | 0.00 | 0.00 | 4 | 1006.7 |
| 20260506134820 | 26 | 195 | 0.0 | 1.6 | 0.00 | 0.00 | 0.00 | 3 | 1006.6 |
| 20260506133006 | 26 | 245 | 0.0 | 1.6 | 0.00 | 0.00 | 0.00 | 3 | 1006.4 |
| 20260506131007 | 25 | 232 | 1.6 | 3.2 | 0.00 | 0.00 | 0.00 | 3 | 1006.5 |
| 20260506125100 | 25 | 222 | 1.6 | 1.6 | 0.00 | 0.00 | 0.00 | 4 | 1006.4 |
| 20260506123259 | 26 | 256 | 0.0 | 4.8 | 0.00 | 0.00 | 0.00 | 3 | 1006.7 |
| 20260506123223 | 26 | 256 | 0.0 | 4.8 | 0.00 | 0.00 | 0.00 | 3 | 1006.7 |
| 20260506121540 | 25 | 278 | 0.0 | 1.6 | 0.00 | 0.00 | 0.00 | 4 | 1006.6 |
| 20260506115842 | 26 | 239 | 0.0 | 3.2 | 0.00 | 0.00 | 0.00 | 3 | 1006.6 |
| 20260506114220 | 26 | 240 | 4.8 | 4.8 | 0.00 | 0.00 | 0.00 | 3 | 1006.8 |
| 20260506112313 | 26 | 245 | 4.8 | 17.7 | 0.00 | 0.00 | 0.00 | 3 | 1006.8 |
| 20260506110623 | 26 | 213 | 4.8 | 12.9 | 0.00 | 0.00 | 0.00 | 3 | 1006.7 |
| 20260506104903 | 26 | 227 | 4.8 | 8.0 | 0.00 | 0.00 | 0.00 | 3 | 1006.8 |
| 20260506103009 | 26 | 223 | 1.6 | 16.1 | 0.00 | 0.00 | 0.00 | 3 | 1006.8 |
| 20260506101251 | 25 | 196 | 3.2 | 14.5 | 0.00 | 0.00 | 0.00 | 4 | 1006.8 |
| 20260506095341 | 24 | 230 | 3.2 | 6.4 | 0.00 | 0.00 | 0.00 | 3 | 1006.7 |
| 20260506093743 | 24 | 211 | 4.8 | 8.0 | 0.00 | 0.00 | 0.00 | 3 | 1006.9 |
| 20260506092128 | 25 | 222 | 1.6 | 6.4 | 0.00 | 0.00 | 0.00 | 3 | 1006.9 |
| 20260506090141 | 25 | 237 | 3.2 | 9.7 | 0.00 | 0.00 | 0.00 | 3 | 1006.7 |
| 20260506084423 | 24 | 228 | 1.6 | 4.8 | 0.00 | 0.00 | 0.00 | 4 | 1006.7 |
| 20260506082543 | 24 | 200 | 0.0 | 1.6 | 0.00 | 0.00 | 0.00 | 3 | 1006.5 |
| 20260506080825 | 23 | 278 | 0.0 | 1.6 | 0.00 | 0.00 | 0.00 | 4 | 1006.6 |
| 20260506073423 | 23 | 203 | 1.6 | 4.8 | 0.00 | 0.00 | 0.00 | 3 | 1006.5 |
| 20260506071608 | 23 | 235 | 1.6 | 6.4 | 0.00 | 0.00 | 0.00 | 3 | 1006.3 |
| 20260506062010 | 21 | 210 | 1.6 | 8.0 | 0.00 | 0.00 | 0.00 | 3 | 1006.4 |
| 20260506060405 | 20 | 242 | 0.0 | 1.6 | 0.00 | 0.00 | 0.00 | 4 | 1006.3 |
| 20260506043243 | 16 | 161 | 0.0 | 1.6 | 0.00 | 0.00 | 0.00 | 5 | 1006.0 |
| 20260506041408 | 16 | 154 | 0.0 | 0.0 | 0.00 | 0.00 | 0.00 | 5 | 1005.8 |
| 20260506035648 | 16 | 170 | 0.0 | 0.0 | 0.00 | 0.00 | 0.00 | 5 | 1006.0 |
| 20260506034040 | 16 | 159 | 0.0 | 1.6 | 0.00 | 0.00 | 0.00 | 4 | 1006.0 |
| 20260506032148 | 16 | 113 | 0.0 | 0.0 | 0.00 | 0.00 | 0.00 | 5 | 1006.5 |
| 20260506030413 | 16 | 191 | 0.0 | 1.6 | 0.00 | 0.00 | 0.00 | 5 | 1006.2 |
| 20260506024500 | 16 | 202 | 0.0 | 6.4 | 0.00 | 0.00 | 0.00 | 5 | 1006.2 |
| 20260506022753 | 15 | 194 | 0.0 | 1.6 | 0.00 | 0.00 | 0.00 | 5 | 1006.3 |
| 20260506020913 | 15 | 195 | 0.0 | 0.0 | 0.00 | 0.00 | 0.00 | 5 | 1006.4 |
| 20260506015203 | 15 | 195 | 0.0 | 0.0 | 0.00 | 0.00 | 0.00 | 5 | 1006.4 |
| 20260506013320 | 15 | 195 | 0.0 | 0.0 | 0.00 | 0.00 | 0.00 | 4 | 1006.6 |
| 20260506011513 | 15 | 195 | 0.0 | 0.0 | 0.00 | 0.00 | 0.00 | 4 | 1006.7 |
| 20260506005840 | 15 | 194 | 0.0 | 1.6 | 0.00 | 0.00 | 0.00 | 4 | 1006.8 |
| 20260506004036 | 15 | 227 | 0.0 | 0.0 | 0.00 | 0.00 | 0.00 | 4 | 1006.9 |
| 20260506002320 | 15 | 227 | 0.0 | 1.6 | 0.00 | 0.00 | 0.00 | 5 | 1007.0 |
| 20260505235527 | 15 | 228 | 0.0 | 0.0 | 0.00 | 0.00 | 0.00 | 4 | 1007.0 |
| 20260505231705 | 15 | 228 | 0.0 | 0.0 | 0.00 | 0.00 | 0.00 | 4 | 1007.2 |
| 20260505225804 | 16 | 227 | 0.0 | 1.6 | 0.00 | 0.00 | 0.00 | 4 | 1007.2 |